Weather Roundup
Issued by NWS

Home | Current Version | Previous Version | Text Only | Print | Product List | Glossary On
Versions: 1 2 3 4 5 6 7 8 9 10 11 12 13 14 15 16 17 18 19 20 21 22 23 24 25 26 27 28 29 30 31 32 33 34 35 36 37 38 39 40 41 42 43 44 45 46 47 48 49 50
762
NZUS93 KARX 102010
HRRWXR

CURRENT HOURLY OBSERVATIONS ACROSS
MUCH OF THE UPPER MISSISSIPPI VALLEY
NATIONAL WEATHER SERVICE LA CROSSE WI
200 PM CST WED FEB 10 2016


...SOUTHEAST MINNESOTA...


CITY           SKY/WX    TMP DP  RH WIND       PRES   REMARKS
ROCHESTER      CLOUDY     8  -2  63 NW8       30.04S WCI  -4
ROCHESTER/MAYO CLOUDY     9  -1  63 W7        30.06S WCI  -2
WINONA         SUNNY     14   1  57 NW5       30.10F WCI   6
AUSTIN         SUNNY     10  -2  56 N6        30.04F WCI   1
ALBERT LEA     CLOUDY    10   1  67 E6        30.04F WCI   1
DODGE CENTER   CLOUDY    12   0  57 N6        30.04F WCI   3
PRESTON        CLOUDY     8  -4  58 N6        30.04S WCI  -2
OWATONNA       CLOUDY    10   0  61 NW5       30.05F WCI   2
FARIBAULT        N/A     10  -2  56 NE7       30.07F WCI   0
$$

...ELSEWHERE IN MINNESOTA...


CITY           SKY/WX    TMP DP  RH WIND       PRES   REMARKS
MINNEAPOLIS    CLOUDY    12  -3  51 N3        30.10F
INTNL FALLS    SUNNY     -1 -13  56 CALM      30.14F
DULUTH         SUNNY      8  -9  45 N9        30.04F WCI  -5
RED WING       SUNNY      9  -8  47 N6        30.11S WCI  -1
REDWOOD FALLS  CLOUDY    12   2  64 E6        30.07F WCI   3
MANKATO        SUNNY     12   0  57 NE6       30.07F WCI   3
WORTHINGTON    CLOUDY    10   7  85 E12       30.00S WCI  -4
FAIRMONT       CLOUDY    10   1  67 NE7       30.04S WCI   0
$$

...SOUTHWEST WISCONSIN...


CITY           SKY/WX    TMP DP  RH WIND       PRES   REMARKS
LA CROSSE      CLOUDY    10  -2  58 W8        30.09S WCI  -2
PRAIRIE DU CHI MOSUNNY   16  -4  42 W7        30.07S WCI   6
BOSCOBEL       CLOUDY    15  -3  44 NW7       30.07S WCI   5
LONE ROCK      NOT AVBL
PLATTEVILLE    CLOUDY    13   0  55 NW8       30.02S WCI   2
FORT MC COY    CLOUDY    13  -1  53 NW6       30.07S WCI   4
CAMP DOUGLAS   PTSUNNY   14   0  52 NW10      30.03S WCI   1
VIROQUA        FAIR      10  -2  57 N7        30.01S WCI  -1
WIS DELLS      MOSUNNY   13  -3  49 NW6       30.02S WCI   4
$$

...ELSEWHERE IN WISCONSIN...


CITY           SKY/WX    TMP DP  RH WIND       PRES   REMARKS
MILWAUKEE      PTSUNNY   15  -1  49 NW12      30.00S WCI   2
MADISON        PTSUNNY   12  -2  53 N12G18    30.02S WCI  -2
GREEN BAY      SUNNY     13  -5  44 NW14      30.01S WCI  -2
EAU CLAIRE     SUNNY      8  -3  61 NW7       30.08F WCI  -3
BLACK RVR FLS  FAIR      13  -4  47 NW5       30.06F WCI   5
MEDFORD        PTSUNNY   10  -4  53 N7        29.98S WCI  -1
WAUSAU         MOSUNNY   13  -4  46 NW10G16   29.98F WCI   0
WIS RAPIDS     MOSUNNY   11  -4  51 N14       30.03F WCI  -5
MARSHFIELD     MOSUNNY   10  -5  50 NW13      30.00S WCI  -5
RICE LAKE      SUNNY      9  -2  61 NW6       30.09S WCI  -1
$$

...NORTHEAST IOWA...


CITY           SKY/WX    TMP DP  RH WIND       PRES   REMARKS
WATERLOO       PTSUNNY   14   1  56 N6        30.06F WCI   5
DUBUQUE        CLOUDY    14   0  53 W7        30.03S WCI   4
DECORAH        CLOUDY    10  -4  52 N8        30.03F WCI  -1
MASON CITY     CLOUDY    12   3  67 NE6       30.05F WCI   3
CHARLES CITY   CLOUDY    10  -2  56 CALM      30.06F
OELWEIN        CLOUDY    12   0  57 N6        30.05F WCI   3
$$

...ELSEWHERE IN IOWA...


CITY           SKY/WX    TMP DP  RH WIND       PRES   REMARKS
DES MOINES     FLURRIES  19  12  74 E8        30.03F WCI   9
IOWA CITY      CLOUDY    18   3  52 N8        30.09F WCI   8
FORT DODGE     CLOUDY    14   7  73 E14       30.04R WCI  -1
MARSHALLTOWN   FLURRIES  13   8  81 NE6       30.05F WCI   4
CEDAR RAPIDS   CLOUDY    15   4  61 VRB6      30.05F WCI   6
$$

...NORTHERN ILLINOIS...


CITY           SKY/WX    TMP DP  RH WIND       PRES   REMARKS
CHICAGO-OHARE  PTSUNNY   17   3  54 NW12G20   30.01S WCI   4
CHICAGO-MIDWAY MOSUNNY   18   2  49 NW12      30.02S WCI   5
MOLINE         PTSUNNY   18   2  49 NW7       30.07F WCI   9
ROCKFORD       PTSUNNY   16   2  54 NW9       30.05S WCI   4
PEORIA         CLOUDY    20   2  45 W12       30.08S WCI   8
$$

NOTE: "FAIR" INDICATES FEW OR NO CLOUDS BELOW 12,000 FEET WITH NO
SIGNIFICANT WEATHER AND/OR OBSTRUCTIONS TO VISIBILITY. WIND
SPEEDS ARE IN MILES-PER-HOUR.




USA.gov is the U.S. government's official web portal to all federal, state and local government web resources and services.